Simultaneous Nadir Overpasses (SNOs) Predictions

Prediction of SNOs between GOES-17 and TERRA Satellite Orbit:

Table of predicted SNOs for the next 14.0 days since TLE Epoch: 2/28/2025
Index Date Time (GOES-17) GOES-17 Lat,Lon TERRA Lat,Lon Distance(km) Time Diff (sec)
1 03/01/2025 04:32:35 -0.02,-104.39 -0.32,-105.91 171.73 80
2 03/03/2025 04:16:29 -0.02,-104.40 0.59,-101.38 342.79 80
3 03/03/2025 16:36:03 0.02,-104.42 0.39,-106.15 196.19 80
4 03/05/2025 16:14:38 0.02,-104.43 -0.57,-101.63 318.10 80
5 03/06/2025 04:34:18 -0.02,-104.41 -0.46,-106.41 228.49 80
6 03/08/2025 04:18:11 -0.01,-104.41 0.49,-101.89 286.13 80
7 03/08/2025 16:37:46 0.01,-104.43 0.46,-106.66 252.63 80
8 03/10/2025 16:16:18 0.00,-104.44 -0.49,-102.13 262.66 80
9 03/11/2025 04:35:59 -0.00,-104.42 -0.52,-106.92 283.76 80
10 03/13/2025 04:19:50 -0.00,-104.43 0.43,-102.38 232.79 80
11 03/13/2025 16:39:24 0.00,-104.46 0.56,-107.14 305.12 80
